Location: LDNL
(36.4545°S, 141.6685°E)
Time: 10:29:45
(UTC+10:00)

Tiros 1 despin weight - Pass Details

Date: 10 August 2022
Orbit: 590 x 639 km, 48.2° (Epoch: 23 September)

Event Time Altitude Azimuth Distance (km) Brightness Sun altitude
Rises 23:12:01 0° 348° (NNW) 2,870 - -61.5°
Reaches altitude 10° 23:14:54 10° 7° (N) 1,984 - -61.9°
Maximum altitude 23:17:59 18° 49° (NE) 1,544 - -62.4°
Drops below altitude 10° 23:21:07 10° 92° (E) 2,020 - -62.8°
Sets 23:24:05 0° 110° (ESE) 2,943 - -63.2°
